Regional Weather Roundup
Issued by NWS

Home | Current Version | Previous Version | Graphics & Text | Print | Product List | Glossary On
Versions: 1 2 3 4 5 6 7 8 9 10 11 12 13 14 15 16 17 18 19 20 21 22 23 24 25 26 27 28 29 30 31 32 33 34 35 36 37 38 39 40 41 42 43 44 45 46 47 48 49 50
000
ASUS43 KBIS 201702
RWRND

NORTH DAKOTA REGIONAL WEATHER ROUNDUP
NATIONAL WEATHER SERVICE BISMARCK ND
1100 AM CST SAT JAN 20 2018

NOTE: "FAIR" INDICATES FEW OR NO CLOUDS BELOW 12,000 FEET WITH NO
SIGNIFICANT WEATHER AND/OR OBSTRUCTIONS TO VISIBILITY.


NDZ001>003-009>011-017-201800-
NORTHWEST NORTH DAKOTA

CITY           SKY/WX    TMP DP  RH WIND       PRES   REMARKS
WILLISTON      SUNNY     29  20  69 SW17      29.84R WCI  17
MINOT          CLOUDY    33  22  63 SW17      29.79R
MINOT AFB      SUNNY     31  23  71 W13       29.78R
$$

NDZ018>021-031>035-040>046-201800-
SOUTHWEST NORTH DAKOTA

CITY           SKY/WX    TMP DP  RH WIND       PRES   REMARKS
BISMARCK       MOSUNNY   36  30  79 W8        29.88R
DICKINSON      PTSUNNY   34  24  67 W12       29.85R
GARRISON         N/A     34  27  75 W10       29.82R
HETTINGER ARPT PTSUNNY   35  29  78 W10       29.90R
$$

NDZ004>008-012>016-024-026-027-054-201800-
NORTHEAST NORTH DAKOTA

CITY           SKY/WX    TMP DP  RH WIND       PRES   REMARKS
GRAND FORKS    PTSUNNY   32  26  78 W5        29.82R
GRND FRKS AFB  FAIR      34  25  70 W7        29.81R
DEVILS LAKE    FAIR      30  25  81 W10       29.81R
$$

NDZ022-023-025-028>030-036>039-047>053-201800-
SOUTHEAST NORTH DAKOTA

CITY           SKY/WX    TMP DP  RH WIND       PRES   REMARKS
FARGO          FAIR      34  29  82 SW9       29.85R
JAMESTOWN      PTSUNNY   37  30  75 W13       29.83R
$$





USA.gov is the U.S. government's official web portal to all federal, state and local government web resources and services.